DMSP 5D-2 F13 DEB, 42263

Orbit data source: Space-Track

DMSP 5D-2 F13 DEB, 42263 is space debris in SSO originally from a launch on Fri, 24 Mar 1995 UTC launched from the Air Force Western Test Range (AFWTR). Debris objects in space refer to the collection of defunct objects orbiting the Earth. Examples of debris include non-operational satellites, rocket bodies, and fragments generated from explosions, collisions, or faulty payload assembly.

Loading next visibility...
Identifier
42263, 1995-015GD
Orbit
SSO
Country
Flag of USUS
Related business
Manufacturer
Unknown
Mission
Spacecraft
Bus & Motor
Unknown
Mass
Unknown
Launch date (UTC)
1995-03-24 (31 years ago)
Launch vehicle
Unknown
Launch site
Air Force Western Test Range (AFWTR)
Object type
Payload
Rocket body
Debris
Shape & HBR
Unknown shape, 0.1 m
Radar Cross Section
Small (<0.1 m²)

Expand to show TLE details & history
Last TLE update: 2 weeks ago

TLE from 2 weeks ago
0 DMSP 5D-2 F13 DEB
1 42263U 95015GD  26081.35267422  .00002045  00000-0  13509-2 0  9996
2 42263  98.7471 297.9968 0113146 265.8089  93.0139 13.99669485556055
Epoch: 2026-03-22T08:27Z
TLE epoch observation values (Epoch: 2026-03-22T08:27:51.052Z)
Latitude
-0.00002°
Longitude
-8.82617°
Altitude
903.081 km
Speed
7.398 km/s
True Right ascension
19h 51m 59s
True Declination
0° 00' 00"
Sunlit
Object was in daylight at epoch
Visualization orbit readout
Latitude
Unknown
Longitude
Unknown
Altitude
Unknown
Speed
Unknown
Apparent Right ascension
Unknown
Apparent Declination
Unknown
Sunlit
N/A
Visualization observer readout
Local Sidereal Time
23:15:17
Azimuth
Unknown
Elevation
Unknown
Doppler factor
Unknown
Orbital elements
Apogee altitude
974.387 km
Perigee altitude
809.867 km
Semi-major axis
7,270.264 km
Eccentricity
0.01131
Inclination
98.7471°
RAAN
297.9968°
Arg. of periapsis
265.8089°
True anomaly
94.30759°
Mean anomaly
93.0139°
Eccentric anomaly
93.66086°
Mean motion
3.50121 °/min
Orbital period
102.82 mins
BSTAR
0.0013509
Loading maneuver chart data...
Computing Atmospheric mass density...

Documentation

Showing up to 5 results
|